Location: Miss�
(46.9484°N, 0.1922°W)
Time: 00:13:07
(UTC+00:00)

SL-16 R/B - Pass Details

Date: 02 March 2021
Orbit: 843 x 845 km, 71.0° (Epoch: 20 April)

Event Time Altitude Azimuth Distance (km) Brightness Sun altitude
Rises 19:44:21 0° 230° (SW) 3,391 5.9 -20.6°
Reaches altitude 10° 19:46:57 10° 238° (WSW) 2,461 5.2 -21.0°
Maximum altitude 19:52:13 39° 306° (NW) 1,251 3.6 -21.9°
Drops below altitude 10° 19:57:31 10° 15° (NNE) 2,476 4.6 -22.7°
Sets 20:00:09 0° 24° (NNE) 3,416 5.3 -23.2°
